Location: Most
(50.5133°N, 13.6207°E)
Time: 09:39:24
(UTC+02:00)

ISS - Pass Details

Date: 18 July 2018
Orbit: 402 x 408 km, 51.6° (Epoch: 17 July)

Event Time Altitude Azimuth Distance (km) Brightness Sun altitude
Exits shadow 23:58:10 49° 177° (S) 531 -3.7 -16.8°
Maximum altitude 23:58:28 51° 155° (SSE) 516 -3.8 -16.8°
Drops below altitude 10° 00:01:41 10° 79° (ENE) 1,469 -1.1 -16.9°
Sets 00:03:48 0° 74° (ENE) 2,332 0.0 -17.0°
